Content
SEND FEEDBACK

Daily
Averages
Monthly
Summary
United States of America

WEST ALTON, MISSOURI


Home > North America > United States > Missouri
Elevation: 417 feet     Latitude: 38 52N     Longitude: 090 10W

WEATHER
 
SELECT A DAY
Number of Records: 201,077;   Date Range: 1/1/95 - 10/19/14
 
SHARE

PRINT THIS DATA

[ ← Previous Day ]
WEATHER ALMANAC - JANUARY 6, 2013
[ Next Day → ]
[ °C ]   °F
Weather ElementAverageHighLow
Temperature35.9 °F43.5 °F (1:35 am)26.2 °F (11:15 pm)
Dewpoint27.2 °F32.5 °F (1:35 am)19.4 °F (4:50 pm)
Humidity71.5 %86 % (9:35 pm)48 % (4:50 pm)
Barometer30.21 in30.39 in (11:15 pm)30.08 in (12:35 am)
Wind Speed10.5 mph17.3 mph (1:35 am)
Wind Gust28.8 mph (7:45 am)
Weather ElementAverage
Visibility9.7 mi
Wind DirectionSSW (218.9 °)

Weather ElementTotal
Precipitation---
Heating Degree Days30.2 (Base 65)
Averaged from 35 records on January 6, 2013
WEATHER CONDITIONS BREAKOUT
WIND DIRECTION BREAKOUT
WEATHER BY HOUR - JANUARY 6, 2013
[ °C ]   °F
Local TimeTemperatureDewpointHumidityBarometerVisibilityWind DirectionWind SpeedGust SpeedPrecipitationEventsConditions
12:35 AM42.8 °F32.0 °F66 %30.08 in10.0 miSW (220°)9.2 mphOvercast
12:55 AM43.0 °F32.2 °F66 %30.09 in10.0 miSW (220°)11.5 mphOvercast
1:15 AM42.8 °F32.4 °F67 %30.08 in10.0 miSW (230°)11.5 mphOvercast
1:35 AM43.5 °F32.5 °F65 %30.08 in10.0 miWSW (240°)17.3 mphOvercast
2:15 AM43.2 °F32.2 °F65 %30.09 in10.0 miWSW (240°)15.0 mph20.7 mphOvercast
2:35 AM42.4 °F32.0 °F67 %30.09 in10.0 miWSW (250°)15.0 mph20.7 mphMostly Cloudy
2:55 AM41.4 °F32.0 °F69 %30.09 in10.0 miWSW (250°)17.3 mph20.7 mphMostly Cloudy
3:15 AM40.1 °F32.0 °F73 %30.09 in10.0 miWest (260°)15.0 mph20.7 mphScattered Clouds
3:35 AM39.6 °F31.6 °F73 %30.09 in10.0 miWest (270°)13.8 mph24.2 mphClear
3:55 AM38.8 °F31.1 °F74 %30.09 in10.0 miWest (270°)15.0 mphScattered Clouds
4:15 AM38.5 °F31.1 °F75 %30.09 in10.0 miWest (280°)12.7 mphMostly Cloudy
4:35 AM37.6 °F30.2 °F75 %30.10 in10.0 miWest (260°)11.5 mphMostly Cloudy
4:55 AM36.7 °F29.8 °F76 %30.10 in10.0 miWest (270°)11.5 mphScattered Clouds
5:15 AM36.5 °F29.3 °F75 %30.11 in10.0 miWest (280°)11.5 mphClear
5:35 AM35.6 °F29.1 °F77 %30.11 in10.0 miWest (270°)8.1 mphClear
5:55 AM35.8 °F28.9 °F76 %30.12 in10.0 miWest (280°)13.8 mph19.6 mphClear
6:45 AM35.6 °F28.4 °F75 %30.14 in10.0 miWest (280°)16.1 mphOvercast
7:45 AM35.6 °F26.6 °F70 %30.17 in10.0 miNW (310°)16.1 mph28.8 mphOvercast
8:45 AM35.6 °F24.8 °F65 %30.21 in10.0 miWNW (290°)16.1 mphOvercast
9:45 AM35.6 °F26.6 °F70 %30.23 in10.0 miWNW (290°)16.1 mph27.6 mphOvercast
10:45 AM33.8 °F24.8 °F70 %30.26 in10.0 miWNW (300°)11.5 mph23.0 mphOvercast
11:45 AM35.6 °F24.8 °F65 %30.26 in10.0 miWNW (300°)11.5 mphMostly Cloudy
1:50 PM39.2 °F24.8 °F56 %30.27 in10.0 miWNW (300°)16.1 mphScattered Clouds
2:50 PM39.2 °F23.0 °F52 %30.29 in10.0 miWNW (290°)17.3 mphClear
3:50 PM39.2 °F23.0 °F52 %30.32 in10.0 miNW (310°)17.3 mphClear
4:50 PM37.4 °F19.4 °F48 %30.34 in10.0 miNW (320°)8.1 mphClear
6:50 PM30.2 °F21.2 °F69 %30.37 in10.0 miWNW (290°)6.9 mphClear
8:50 PM30.2 °F24.8 °F80 %30.37 in10.0 miWNW (290°)5.8 mphClear
9:15 PM27.3 °F23.0 °F84 %30.37 in10.0 miCalmClear
9:35 PM27.7 °F23.9 °F86 %30.38 in10.0 miCalmClear
9:50 PM28.4 °F24.8 °F86 %30.37 in10.0 miCalmClear
9:55 PM27.1 °F23.0 °F84 %30.37 in7.0 miCalmClear
10:15 PM26.4 °F21.0 °F80 %30.37 in10.0 miCalmClear
10:55 PM27.7 °F23.7 °F85 %30.38 in7.0 miCalmClear
11:15 PM26.2 °F22.6 °F86 %30.39 in7.0 miCalmClear
Hourly data recorded from KALN, located miles away from West Alton, Missouri







STORIES FROM OUR PARTNERS